When you browse on this site, cookies collect data to enhance your experience and personalize the content and advertising you see.
Visit our Privacy Policy to learn more. By continuing to use the site, you agree to this use of cookies and data.
  • In Portugal
  • List of Countries
  • For 7 days
  • Water Temperature
  • Satellite Maps
  • Weather Map
  • Weather Widgets
  • user-avatar
    Login

    Hourly Weather Hampi

    Today, 25 May, Saturday

    Time Temperature Precipitation Wind Pressure Humidity
    00:00 +33°C° 0 mm 8 mps 712 mmHg 65%
    01:00 +32°C° 0 mm 7 mps 712 mmHg 67%
    02:00 +32°C° 0 mm 6 mps 712 mmHg 68%
    03:00 +30°C° 0 mm 6 mps 712 mmHg 69%
    04:00 +30°C° 0 mm 6 mps 712 mmHg 70%
    05:00 +30°C° 0 mm 6 mps 712 mmHg 71%
    06:00 +30°C° 0 mm 6 mps 713 mmHg 67%
    07:00 +32°C° 0 mm 6 mps 713 mmHg 63%
    08:00 +33°C° 0 mm 6 mps 714 mmHg 60%
    09:00 +35°C° 0 mm 5 mps 714 mmHg 52%
    10:00 +36°C° 0 mm 5 mps 714 mmHg 44%
    11:00 +38°C° 0 mm 4 mps 714 mmHg 36%
    12:00 +40°C° 0 mm 4 mps 713 mmHg 33%
    13:00 +40°C° 0 mm 3 mps 712 mmHg 30%
    14:00 +41°C° 0 mm 2 mps 711 mmHg 27%
    15:00 +41°C° 0 mm 2 mps 711 mmHg 27%
    16:00 +41°C° 0 mm 2 mps 711 mmHg 27%
    17:00 +41°C° 0 mm 1 mps 710 mmHg 27%
    18:00 +40°C° 0.1 mm 2 mps 710 mmHg 29%
    19:00 +40°C° 0.1 mm 3 mps 711 mmHg 30%
    20:00 +40°C° 0.1 mm 4 mps 711 mmHg 32%
    21:00 +38°C° 0.3 mm 6 mps 711 mmHg 43%
    22:00 +34°C° 0.3 mm 7 mps 712 mmHg 55%
    23:00 +32°C° 0.3 mm 9 mps 712 mmHg 66%

    Tomorrow, 26 May, Sunday

    Time Temperature Precipitation Wind Pressure Humidity
    00:00 +32°C° 0 mm 9 mps 712 mmHg 68%
    01:00 +31°C° 0 mm 9 mps 712 mmHg 69%
    02:00 +31°C° 0 mm 9 mps 712 mmHg 71%
    03:00 +29°C° 0 mm 8 mps 712 mmHg 71%
    04:00 +29°C° 0 mm 8 mps 712 mmHg 71%
    05:00 +29°C° 0 mm 7 mps 712 mmHg 72%
    06:00 +29°C° 0 mm 7 mps 712 mmHg 69%
    07:00 +30°C° 0 mm 7 mps 713 mmHg 66%
    08:00 +32°C° 0 mm 7 mps 713 mmHg 63%
    09:00 +34°C° 0 mm 6 mps 713 mmHg 53%
    10:00 +36°C° 0 mm 6 mps 713 mmHg 44%
    11:00 +39°C° 0 mm 5 mps 713 mmHg 34%
    12:00 +40°C° 0 mm 5 mps 713 mmHg 31%
    13:00 +41°C° 0 mm 5 mps 712 mmHg 28%
    14:00 +42°C° 0 mm 4 mps 711 mmHg 25%
    15:00 +42°C° 0 mm 4 mps 711 mmHg 24%
    16:00 +43°C° 0 mm 3 mps 711 mmHg 23%
    17:00 +43°C° 0 mm 3 mps 710 mmHg 22%
    18:00 +41°C° 0 mm 5 mps 711 mmHg 28%
    19:00 +39°C° 0 mm 7 mps 711 mmHg 34%
    20:00 +38°C° 0 mm 9 mps 712 mmHg 40%
    21:00 +35°C° 0 mm 9 mps 712 mmHg 45%
    22:00 +34°C° 0 mm 9 mps 712 mmHg 51%
    23:00 +32°C° 0 mm 8 mps 713 mmHg 57%

    Day after tomorrow, 27 May, Monday

    Time Temperature Precipitation Wind Pressure Humidity
    00:00 +31°C° 0 mm 8 mps 712 mmHg 59%
    01:00 +31°C° 0 mm 8 mps 712 mmHg 62%
    02:00 +29°C° 0 mm 8 mps 712 mmHg 65%
    03:00 +28°C° 0 mm 8 mps 712 mmHg 67%
    04:00 +28°C° 0 mm 8 mps 712 mmHg 69%
    05:00 +28°C° 0 mm 8 mps 712 mmHg 71%
    06:00 +28°C° 0 mm 7 mps 712 mmHg 69%
    07:00 +29°C° 0 mm 7 mps 713 mmHg 66%
    08:00 +29°C° 0 mm 6 mps 713 mmHg 63%
    09:00 +32°C° 0 mm 6 mps 713 mmHg 55%
    10:00 +34°C° 0 mm 5 mps 713 mmHg 46%
    11:00 +36°C° 0 mm 5 mps 713 mmHg 37%
    12:00 +38°C° 0 mm 4 mps 713 mmHg 33%
    13:00 +41°C° 0 mm 4 mps 712 mmHg 28%
    14:00 +42°C° 0 mm 3 mps 712 mmHg 23%
    15:00 +43°C° 0 mm 3 mps 711 mmHg 22%
    16:00 +42°C° 0 mm 2 mps 711 mmHg 21%
    17:00 +42°C° 0 mm 2 mps 710 mmHg 20%
    18:00 +41°C° 0 mm 4 mps 711 mmHg 27%
    19:00 +40°C° 0 mm 7 mps 711 mmHg 35%
    20:00 +38°C° 0 mm 9 mps 711 mmHg 42%
    21:00 +35°C° 0 mm 9 mps 711 mmHg 49%
    22:00 +34°C° 0 mm 8 mps 712 mmHg 57%
    23:00 +32°C° 0 mm 8 mps 712 mmHg 65%

    28 May, Tuesday

    Time Temperature Precipitation Wind Pressure Humidity
    00:00 +32°C° 0 mm 8 mps 712 mmHg 66%
    01:00 +30°C° 0 mm 7 mps 711 mmHg 67%
    02:00 +30°C° 0 mm 7 mps 711 mmHg 68%
    03:00 +30°C° 0 mm 7 mps 711 mmHg 69%
    04:00 +29°C° 0 mm 6 mps 712 mmHg 69%
    05:00 +29°C° 0 mm 6 mps 712 mmHg 70%
    06:00 +30°C° 0 mm 6 mps 712 mmHg 66%
    07:00 +30°C° 0 mm 6 mps 713 mmHg 62%
    08:00 +32°C° 0 mm 6 mps 713 mmHg 58%
    09:00 +35°C° 0 mm 6 mps 713 mmHg 47%
    10:00 +38°C° 0 mm 6 mps 713 mmHg 37%
    11:00 +40°C° 0 mm 5 mps 713 mmHg 26%
    12:00 +42°C° 0 mm 5 mps 712 mmHg 23%
    13:00 +43°C° 0 mm 5 mps 711 mmHg 20%
    14:00 +45°C° 0 mm 5 mps 711 mmHg 17%
    15:00 +44°C° 0 mm 4 mps 710 mmHg 16%
    16:00 +44°C° 0 mm 4 mps 710 mmHg 16%
    17:00 +45°C° 0 mm 4 mps 710 mmHg 16%
    18:00 +44°C° 0 mm 4 mps 710 mmHg 17%
    19:00 +43°C° 0 mm 3 mps 710 mmHg 18%
    20:00 +42°C° 0 mm 3 mps 711 mmHg 19%
    21:00 +40°C° 0 mm 5 mps 711 mmHg 32%
    22:00 +36°C° 0 mm 7 mps 711 mmHg 45%
    23:00 +34°C° 0 mm 8 mps 711 mmHg 57%

    29 May, Wednesday

    Time Temperature Precipitation Wind Pressure Humidity
    00:00 +33°C° 0 mm 8 mps 711 mmHg 59%
    01:00 +32°C° 0 mm 7 mps 710 mmHg 61%
    02:00 +32°C° 0 mm 7 mps 710 mmHg 63%
    03:00 +30°C° 0 mm 6 mps 710 mmHg 64%
    04:00 +30°C° 0 mm 6 mps 711 mmHg 65%
    05:00 +29°C° 0 mm 5 mps 711 mmHg 67%
    06:00 +30°C° 0 mm 5 mps 711 mmHg 64%
    07:00 +30°C° 0 mm 6 mps 712 mmHg 62%
    08:00 +32°C° 0 mm 6 mps 713 mmHg 59%
    09:00 +34°C° 0 mm 6 mps 713 mmHg 49%
    10:00 +38°C° 0 mm 6 mps 712 mmHg 38%
    11:00 +40°C° 0 mm 6 mps 712 mmHg 27%
    12:00 +42°C° 0 mm 6 mps 712 mmHg 23%
    13:00 +43°C° 0 mm 5 mps 711 mmHg 19%
    14:00 +46°C° 0 mm 5 mps 710 mmHg 15%
    15:00 +46°C° 0 mm 5 mps 710 mmHg 15%
    16:00 +45°C° 0 mm 4 mps 710 mmHg 14%
    17:00 +45°C° 0 mm 4 mps 709 mmHg 14%
    18:00 +44°C° 0 mm 6 mps 710 mmHg 22%
    19:00 +41°C° 0 mm 7 mps 710 mmHg 29%
    20:00 +39°C° 0 mm 9 mps 711 mmHg 37%
    21:00 +37°C° 0 mm 9 mps 711 mmHg 45%
    22:00 +34°C° 0 mm 9 mps 711 mmHg 54%
    23:00 +32°C° 0 mm 8 mps 711 mmHg 62%

    30 May, Thursday

    Time Temperature Precipitation Wind Pressure Humidity
    00:00 +32°C° 0 mm 8 mps 711 mmHg 63%
    01:00 +30°C° 0 mm 7 mps 710 mmHg 63%
    02:00 +30°C° 0 mm 7 mps 710 mmHg 63%
    03:00 +29°C° 0 mm 7 mps 710 mmHg 64%
    04:00 +29°C° 0 mm 6 mps 711 mmHg 66%
    05:00 +28°C° 0 mm 6 mps 711 mmHg 67%
    06:00 +29°C° 0 mm 6 mps 711 mmHg 64%
    07:00 +30°C° 0 mm 6 mps 712 mmHg 61%
    08:00 +32°C° 0 mm 6 mps 713 mmHg 58%
    09:00 +34°C° 0 mm 6 mps 713 mmHg 48%
    10:00 +36°C° 0 mm 6 mps 713 mmHg 39%
    11:00 +40°C° 0 mm 6 mps 712 mmHg 29%
    12:00 +41°C° 0 mm 6 mps 712 mmHg 26%
    13:00 +42°C° 0 mm 5 mps 711 mmHg 22%
    14:00 +45°C° 0 mm 5 mps 710 mmHg 19%
    15:00 +45°C° 0 mm 5 mps 710 mmHg 18%
    16:00 +44°C° 0 mm 4 mps 710 mmHg 17%
    17:00 +44°C° 0 mm 4 mps 709 mmHg 16%
    18:00 +42°C° 0 mm 6 mps 710 mmHg 24%
    19:00 +40°C° 0 mm 8 mps 710 mmHg 33%
    20:00 +38°C° 0 mm 10 mps 711 mmHg 41%
    21:00 +35°C° 0 mm 9 mps 711 mmHg 48%
    22:00 +34°C° 0 mm 9 mps 711 mmHg 55%
    23:00 +32°C° 0 mm 8 mps 711 mmHg 62%
    Show more